Location: Home
(42.5358°N, 72.7383°W)
Time: 06:10:56
(UTC-04:00)

COSMOS 2251 DEB - Pass Details

Date: 04 July 2022
Orbit: 769 x 1233 km, 74.1° (Epoch: 15 August)

Event Time Altitude Azimuth Distance (km) Brightness Sun altitude
Exits shadow 01:39:01 50° 170° (S) 1,201 ? -23.8°
Maximum altitude 01:40:37 71° 106° (ESE) 1,035 ? -23.8°
Drops below altitude 10° 01:47:21 10° 24° (NNE) 2,915 ? -23.5°
Sets 01:50:08 0° 22° (NNE) 3,942 ? -23.4°
